Weather History for KDRT - September, 2012

Change the Weather History Date:

Wednesday, September 12, 2012

  Actual Average Record
Temperature  
Mean Temperature 86 °F 81 °F  
Max Temperature 100 °F 92 °F 105 °F (2000)
Min Temperature 72 °F 71 °F 59 °F (1959)
Degree Days  
Heating Degree Days 0 0  
Month to date heating degree days 0 0  
Since 1 July heating degree days 0 0  
Cooling Degree Days 21 16  
Month to date cooling degree days 278 214  
Year to date cooling degree days 3425 2849  
Growing Degree Days 36 (Base 50)    
Moisture  
Dew Point 61 °F    
Average Humidity 52    
Maximum Humidity 79    
Minimum Humidity 24    
Precipitation  
Precipitation 0.00 in 0.07 in 1.78 in (1916)
Month to date precipitation 0.00 0.97  
Year to date precipitation 9.82 14.48  
Sea Level Pressure  
Sea Level Pressure 29.88 in    
Wind  
Wind Speed 10 mph (SE)    
Max Wind Speed 20 mph    
Max Gust Speed 24 mph    
Visibility 10 miles    
Events      
T = Trace of Precipitation, MM = Missing Value Source: NWS Daily Summary

Daily Weather History Graph

Daily Weather History Graph

Search for Another Location

Airport or City:

Trip Planner

Search our weather history database for the weather conditions in past years. The results will help you decide how hot, cold, wet, or windy it might be!

Date:

Astronomy

Sep. 12, 2012 Rise Set
Actual Time 7:27 AM CDT 7:51 PM CDT
Civil Twilight 7:03 AM CDT 8:15 PM CDT
Nautical Twilight 6:35 AM CDT 8:43 PM CDT
Astronomical Twilight 6:07 AM CDT 9:11 PM CDT
Moon 3:59 AM CDT (9/12) 5:30 PM CDT (9/12)
Length of Visible Light 13h 12m
Length of Day
12h 24m
Waning Crescent, 13% of the Moon is Illuminated
Sep 12
Waning Crescent
Sep 15
New
Sep 22
First Quarter
Sep 29
Full
Oct 8
Last Quarter

Hourly Weather History & Observations

Time (CDT) Temp. Heat Index Dew Point Humidity Pressure Visibility Wind Dir Wind Speed Gust Speed Precip Events Conditions
12:53 AM 79.0 °F - 46.0 °F 31% 29.92 in 10.0 mi East 8.1 mph - N/A   Clear
1:53 AM 79.0 °F - 57.9 °F 48% 29.91 in 10.0 mi ESE 12.7 mph - N/A   Clear
2:53 AM 77.0 °F - 60.1 °F 56% 29.91 in 10.0 mi ESE 9.2 mph - N/A   Clear
3:53 AM 75.9 °F - 63.0 °F 64% 29.89 in 10.0 mi ESE 6.9 mph - N/A   Clear
4:53 AM 75.0 °F - 64.9 °F 71% 29.89 in 10.0 mi ESE 5.8 mph - N/A   Clear
5:53 AM 73.9 °F - 66.0 °F 76% 29.88 in 10.0 mi ESE 5.8 mph - N/A   Clear
6:53 AM 73.0 °F - 64.9 °F 76% 29.91 in 10.0 mi Calm Calm - N/A   Clear
7:53 AM 73.0 °F - 66.0 °F 79% 29.93 in 10.0 mi SE 3.5 mph - N/A   Clear
8:53 AM 77.0 °F - 69.1 °F 76% 29.94 in 10.0 mi ESE 11.5 mph - N/A   Clear
9:53 AM 79.0 °F - 69.1 °F 72% 29.95 in 10.0 mi SE 11.5 mph - N/A   Clear
10:53 AM 82.9 °F 86.5 °F 69.1 °F 63% 29.95 in 10.0 mi SE 11.5 mph - N/A   Clear
11:53 AM 87.1 °F 90.6 °F 68.0 °F 53% 29.95 in 10.0 mi ESE 10.4 mph - N/A   Clear
12:53 PM 90.0 °F 92.8 °F 66.9 °F 46% 29.92 in 10.0 mi SE 11.5 mph - N/A   Clear
1:53 PM 93.9 °F 96.1 °F 64.9 °F 38% 29.89 in 10.0 mi SSE 11.5 mph 20.7 mph N/A   Clear
2:53 PM 96.1 °F 97.3 °F 63.0 °F 33% 29.86 in 10.0 mi SE 13.8 mph 23.0 mph N/A   Clear
3:53 PM 98.1 °F 98.6 °F 61.0 °F 29% 29.83 in 10.0 mi SSE 16.1 mph 21.9 mph N/A   Clear
4:53 PM 98.1 °F 98.1 °F 60.1 °F 28% 29.81 in 10.0 mi SSE 16.1 mph 21.9 mph N/A   Partly Cloudy
5:53 PM 98.1 °F 97.2 °F 57.9 °F 26% 29.80 in 10.0 mi SSE 17.3 mph 20.7 mph N/A   Clear
6:53 PM 98.1 °F 96.4 °F 55.9 °F 24% 29.79 in 10.0 mi SSE 12.7 mph - N/A   Clear
7:53 PM 95.0 °F 93.7 °F 57.0 °F 28% 29.79 in 10.0 mi SE 11.5 mph - N/A   Clear
8:53 PM 93.0 °F 91.4 °F 55.9 °F 29% 29.81 in 10.0 mi ESE 6.9 mph - N/A   Clear
9:53 PM 91.0 °F 89.2 °F 55.9 °F 30% 29.85 in 10.0 mi East 6.9 mph - N/A   Clear
10:53 PM 90.0 °F 88.6 °F 57.0 °F 33% 29.86 in 10.0 mi East 8.1 mph - N/A   Partly Cloudy
11:53 PM 89.1 °F 90.3 °F 64.0 °F 43% 29.87 in 10.0 mi ESE 13.8 mph 20.7 mph N/A   Partly Cloudy